Location: Clanezzo
(45.7500°N, 9.6000°E)
Time: 22:44:51
(UTC+00:00)

EO-79 - Pass Details

Date: 01 July 2022
Orbit: 588 x 603 km, 98.0° (Epoch: 07 August)

Event Time Altitude Azimuth Distance (km) Brightness Sun altitude
Rises 00:57:47 0° 15° (NNE) 2,854 ? -18.0°
Reaches altitude 10° 00:59:59 10° 18° (NNE) 1,949 ? -17.9°
Maximum altitude 01:04:12 67° 102° (ESE) 654 ? -17.6°
Enters shadow 01:06:03 32° 175° (S) 1,037 ? -17.4°
